Theta_e
345 347 347 348 347 347 347 347 347 347 346 346 346 345 345 345 344 344 343 343 344 341 339 339 338 338 338 337 337 336 336 337 339 339 339 339 337 335 335 335 337 338 339 340 340 340 340 339 338 337 336 336 336 336 337 337 337 337 336 335 334 334 334 335 334 334 334 334 335 335 335 335 334 334 334 334 333 331 331 332 334 334 334 334 335
346 348 348 349 349 348 348 348 348 347 346 345 345 345 345 344 343 343 342 344 344 341 339 339 338 338 338 338 339 338 337 337 338 339 339 339 338 336 335 335 335 336 338 340 340 340 340 340 340 339 338 338 336 336 338 337 337 337 337 336 336 335 334 333 333 333 333 334 334 334 335 335 335 334 334 335 334 333 332 332 332 333 333 334 335
348 349 348 349 349 349 349 349 348 348 346 345 345 346 345 344 343 342 343 344 343 339 339 340 338 338 339 339 340 339 338 337 337 338 338 339 339 337 337 335 335 335 336 339 340 340 340 340 340 340 340 339 338 338 338 337 336 337 338 337 337 336 335 334 333 333 333 332 332 332 333 334 334 335 335 335 335 335 334 334 333 333 333 333 334
348 348 348 349 349 349 349 348 348 348 346 346 346 346 346 345 344 343 343 344 340 338 340 340 338 338 339 339 339 338 337 337 337 337 336 337 339 338 338 336 335 335 334 337 340 340 340 340 340 340 339 339 339 339 339 338 337 337 337 337 337 337 337 337 336 335 335 334 332 332 331 332 333 333 334 334 335 335 335 336 335 335 334 334 333
347 347 348 348 348 349 348 347 347 346 345 345 346 346 346 346 345 343 343 342 339 339 341 339 338 338 338 338 339 338 338 338 338 337 336 336 338 338 339 338 337 336 334 335 338 340 340 339 339 339 339 338 339 339 340 339 338 338 337 337 338 337 337 337 337 337 336 336 335 335 333 332 332 332 332 333 332 333 334 335 335 335 335 335 334
344 345 346 346 347 347 347 347 346 344 343 345 345 345 346 346 346 344 344 342 339 339 340 338 337 337 336 337 338 338 339 338 337 337 337 337 338 338 339 339 338 337 336 334 335 338 339 340 339 338 338 339 339 339 340 340 339 339 339 338 339 338 338 337 337 337 337 337 336 337 337 335 334 333 333 333 332 330 330 331 332 333 334 334 334
342 343 345 346 346 346 346 346 344 341 342 344 345 345 346 346 346 345 345 342 339 339 338 337 336 336 335 337 338 338 339 338 338 338 338 338 338 339 339 339 338 338 337 335 334 336 337 339 340 339 339 340 340 339 340 341 339 339 339 338 338 339 339 339 338 338 338 338 337 337 337 337 336 335 335 335 333 331 330 329 329 329 330 331 332
344 344 345 346 346 345 345 344 343 341 341 343 344 345 346 347 346 345 344 344 342 341 340 337 336 336 336 337 338 338 338 338 338 338 338 339 338 338 338 338 338 338 338 337 336 336 335 337 338 339 340 340 341 340 340 340 340 340 339 339 338 338 339 339 339 339 339 339 339 338 338 338 338 337 337 337 336 335 334 334 332 331 331 331 330
349 348 348 348 347 345 344 344 343 341 341 342 344 345 346 345 345 344 344 344 343 342 341 338 337 336 333 333 336 338 338 338 338 338 338 338 339 338 338 336 336 337 338 339 338 337 336 337 337 336 337 338 340 340 340 340 341 341 340 340 340 338 338 338 338 338 339 339 339 340 339 339 339 339 338 337 337 336 336 336 336 335 335 334 333
350 350 350 349 348 344 343 343 343 342 341 342 344 345 344 344 345 345 345 345 344 343 341 339 339 336 330 329 334 337 339 338 338 338 338 338 339 338 337 335 333 334 335 337 339 339 338 338 339 338 338 337 338 338 339 340 341 340 340 341 340 340 339 339 338 337 337 338 339 339 340 339 340 339 338 337 337 336 336 337 337 337 337 337 337
350 350 350 349 347 343 342 343 344 344 342 342 343 344 344 345 345 345 346 345 345 343 341 340 340 336 332 332 335 338 339 339 337 338 339 338 338 337 336 334 333 332 331 332 334 337 338 338 338 339 339 338 337 336 336 338 339 339 339 339 339 339 339 339 339 338 338 338 338 338 339 339 340 339 337 337 337 337 337 337 337 338 339 339 339
351 351 350 349 346 343 342 344 345 345 343 343 343 344 345 345 345 346 345 345 344 343 340 340 339 336 334 334 337 338 338 337 338 338 339 338 336 336 336 334 333 333 331 330 330 332 334 336 337 337 337 338 337 335 334 335 335 336 336 336 336 336 338 339 339 339 339 339 339 339 339 339 340 339 338 337 337 336 337 337 337 338 339 340 339
351 351 351 350 348 346 345 346 346 345 344 344 344 344 345 344 345 346 345 346 345 342 340 338 335 334 334 335 337 337 335 335 337 338 338 338 336 336 336 335 333 332 330 329 329 328 328 331 334 335 334 334 336 336 336 335 335 335 334 335 336 337 338 339 339 339 338 339 339 338 338 339 340 340 338 338 338 337 337 337 337 338 339 340 339
350 350 350 351 351 350 349 348 347 346 345 344 344 343 344 344 345 345 345 344 340 336 333 332 332 332 333 336 336 336 336 336 337 338 338 338 337 336 336 334 332 329 327 327 326 325 324 326 328 329 327 329 333 334 334 335 336 335 335 335 336 336 336 335 335 334 334 336 335 335 336 337 338 338 337 338 339 339 338 338 338 339 339 339 339
350 350 350 351 351 351 350 349 348 346 345 345 344 343 343 344 344 342 339 334 329 330 332 333 334 333 333 336 336 336 337 338 338 338 337 337 337 337 335 333 330 327 326 326 325 323 322 321 322 321 321 323 326 328 329 333 336 335 333 331 329 328 327 326 325 325 325 325 325 326 328 329 331 333 334 335 337 338 338 338 339 339 339 338 338
349 349 350 350 351 351 351 349 347 346 346 346 345 343 343 343 341 337 331 326 327 334 337 337 336 333 334 337 336 336 337 337 338 338 337 337 337 337 335 331 329 327 326 325 324 322 321 322 323 322 321 320 320 322 325 329 332 331 327 322 321 320 319 319 318 318 317 317 317 318 318 319 320 322 324 326 328 331 333 334 336 337 337 338 339
349 349 350 351 351 352 352 348 346 346 346 346 344 343 343 341 337 332 328 327 331 336 337 337 336 336 337 336 335 336 337 336 336 336 337 338 338 337 333 330 328 327 326 325 323 322 323 325 327 327 326 324 321 318 319 321 322 322 319 317 316 316 316 316 315 315 315 315 315 315 315 315 315 315 316 317 318 320 322 324 327 329 332 334 336
348 350 350 351 351 352 352 349 346 345 345 344 343 342 342 337 330 327 327 330 334 336 336 336 336 337 337 336 335 335 336 336 335 335 337 338 338 335 331 329 328 327 326 326 325 325 326 327 328 328 326 325 324 320 317 317 316 316 317 318 318 319 319 318 317 317 318 317 317 316 315 315 315 314 314 315 315 315 315 316 318 319 322 325 328
347 350 351 351 351 352 352 349 346 344 343 342 341 340 338 332 325 324 329 334 336 336 335 333 334 337 337 335 334 334 335 336 334 334 336 336 335 332 330 329 328 327 327 327 327 327 327 328 329 329 327 325 324 322 320 318 317 318 321 322 321 321 321 320 320 321 321 320 319 318 317 317 316 315 315 315 315 315 315 315 315 315 316 317 318
346 349 351 351 350 351 350 348 346 344 341 339 338 337 333 327 325 327 331 335 336 336 334 331 331 334 334 333 332 333 335 336 333 331 333 334 332 330 329 328 327 327 327 327 328 328 328 329 329 330 330 329 327 326 325 324 323 324 325 325 324 323 323 323 322 322 322 321 321 320 319 318 317 316 316 316 316 316 316 316 316 316 315 315 315
346 349 351 351 350 349 348 347 346 342 339 336 335 334 330 325 325 328 331 333 334 334 334 332 329 330 331 330 331 333 336 336 334 332 332 332 331 330 329 328 327 328 327 328 329 329 329 331 330 330 330 331 330 328 328 328 328 328 328 327 326 326 326 325 325 323 322 321 321 322 321 319 316 315 315 315 316 317 317 317 317 317 317 317 316
345 348 350 351 351 349 346 345 343 339 337 335 332 331 328 324 325 328 329 330 331 332 334 332 329 329 329 328 329 333 335 335 335 333 332 331 330 329 329 328 328 327 328 328 329 330 331 331 331 331 331 331 330 329 329 329 329 329 328 328 328 327 327 327 326 325 322 321 321 322 321 319 317 316 315 314 315 316 318 318 318 318 318 318 318
345 348 350 350 351 348 345 344 340 338 337 334 331 328 325 324 326 329 330 330 332 332 333 333 332 331 330 328 328 330 332 334 335 334 333 332 330 329 329 329 329 328 328 329 330 331 332 332 332 331 331 332 331 330 329 329 329 329 329 328 328 327 326 326 326 325 323 322 321 321 321 321 319 318 317 315 314 315 316 316 316 316 316 317 318
347 349 350 350 349 347 345 343 339 338 336 333 331 328 325 324 326 330 330 330 331 332 333 333 333 332 331 330 329 328 330 333 335 334 333 332 331 330 330 330 329 328 328 330 331 331 332 332 332 332 331 332 331 330 330 329 330 329 329 329 328 327 325 325 325 325 324 323 322 321 321 320 320 319 318 317 316 316 315 315 314 314 314 314 316
347 347 347 347 346 344 343 342 340 338 335 332 331 330 328 325 324 328 330 329 330 332 331 331 330 329 329 332 332 330 329 331 333 333 331 331 331 331 330 329 329 329 329 330 331 331 332 332 332 332 332 331 331 330 330 330 330 329 329 329 328 327 325 325 325 325 324 324 323 323 322 320 319 319 319 319 318 318 317 316 316 316 315 315 315
344 343 343 344 344 341 340 340 339 338 335 332 331 331 330 326 324 326 326 324 326 328 328 329 329 327 327 330 331 330 330 329 330 332 331 330 331 331 330 330 331 331 331 331 331 331 331 331 332 332 331 331 331 331 330 330 330 329 329 329 328 326 324 324 324 324 324 324 324 324 324 322 321 319 319 319 319 319 319 319 319 318 318 318 318
342 341 342 343 342 341 340 339 338 338 334 331 331 332 330 325 323 325 324 323 325 325 324 326 327 326 327 328 328 329 331 330 328 329 330 330 330 331 331 331 331 331 331 331 331 330 330 331 332 332 331 331 330 330 330 330 330 330 330 329 327 325 323 323 323 323 323 324 324 324 325 325 323 322 320 319 319 319 319 319 319 319 319 319 319
341 342 342 342 342 341 341 338 337 337 333 329 331 332 330 324 321 323 324 326 328 327 324 324 325 325 326 328 327 327 329 331 329 329 330 330 330 330 331 331 331 330 330 330 331 331 331 331 331 331 331 331 331 330 330 329 329 330 330 328 325 322 322 323 323 323 324 324 325 326 326 326 325 324 323 321 321 320 320 320 320 319 319 318 318
341 342 341 342 342 341 341 339 337 336 334 329 329 331 331 326 321 320 322 324 327 327 324 322 323 325 326 327 327 327 328 329 330 331 331 332 331 331 331 331 331 331 330 330 331 331 330 329 330 331 331 331 331 330 329 329 328 328 327 326 323 322 322 322 323 324 324 324 324 326 327 327 326 326 325 324 323 322 322 322 322 321 320 320 319
341 341 342 342 342 342 341 339 337 337 334 330 328 330 330 327 323 320 320 322 324 325 324 322 321 324 326 326 325 326 328 329 330 332 332 332 332 332 331 332 332 332 331 330 330 329 329 328 328 330 330 331 330 330 329 328 326 325 324 323 322 321 321 322 322 323 322 322 322 323 325 326 326 326 325 325 324 324 324 324 324 323 323 322 321
341 342 342 342 342 342 342 341 338 337 336 332 329 330 330 328 325 322 321 321 322 323 324 322 320 321 323 324 323 323 326 329 331 333 334 333 332 332 332 332 332 332 332 331 329 327 327 327 328 329 329 329 329 328 326 325 323 323 322 322 322 322 322 322 322 321 321 320 320 321 322 324 325 325 325 325 324 324 325 325 325 325 324 325 324
341 342 342 342 342 342 341 340 338 337 336 334 331 330 330 328 325 323 322 322 321 321 323 323 321 319 320 322 322 321 323 326 329 333 334 334 333 333 333 333 333 333 332 332 329 327 326 326 326 327 328 328 327 325 323 323 322 322 323 324 324 324 324 322 321 320 319 319 319 320 321 323 324 325 325 325 325 325 325 325 325 325 325 325 325
341 342 342 341 342 342 341 339 337 336 337 336 333 330 329 328 325 323 323 323 320 318 321 322 321 319 319 320 321 321 322 322 325 330 334 334 333 332 332 332 332 332 333 331 328 326 326 324 323 325 326 325 324 323 322 323 323 324 325 326 327 327 326 325 322 319 319 319 319 319 321 322 323 324 325 325 325 325 325 325 325 325 325 325 325
341 341 341 341 341 341 341 339 337 335 336 337 336 332 330 328 324 321 322 321 320 319 319 320 321 320 318 319 320 320 321 321 323 328 332 334 333 331 331 332 332 331 331 330 328 326 325 324 323 324 324 323 322 323 323 324 325 326 327 327 327 328 328 327 325 322 321 320 320 320 320 320 322 324 324 325 325 325 325 325 325 325 325 325 325
341 341 341 341 340 341 342 341 339 336 335 337 338 335 331 329 324 320 320 320 319 319 319 319 321 321 319 318 318 319 320 321 323 326 330 331 331 332 333 333 331 331 330 329 328 326 325 325 324 324 323 322 323 324 325 326 327 327 327 327 327 327 327 328 327 324 321 321 320 320 320 320 321 322 324 324 325 325 325 325 325 325 325 325 324
340 341 342 342 341 341 342 342 341 338 334 335 338 337 333 331 327 322 319 320 320 319 319 319 320 321 321 319 318 319 320 320 321 325 329 331 332 333 334 333 332 331 330 329 328 327 327 327 326 324 324 324 325 326 327 327 327 327 327 327 327 326 326 327 327 324 320 319 318 318 319 320 320 321 323 324 324 324 324 324 324 325 324 324 323
340 341 342 343 342 341 341 342 342 339 335 334 336 337 335 332 330 326 322 320 320 319 319 319 319 320 321 321 320 319 320 321 321 323 327 331 333 334 334 334 333 333 333 331 329 328 328 328 327 325 325 325 325 327 327 327 327 327 328 327 326 326 326 326 326 324 320 318 317 316 317 318 319 320 322 323 324 323 323 322 322 322 322 321 320
339 340 341 342 343 341 341 341 343 341 338 335 335 336 336 334 332 331 327 323 320 319 318 318 319 319 320 320 320 320 320 320 320 321 325 329 333 335 334 335 335 334 334 332 330 328 329 329 328 327 327 327 327 328 328 328 328 328 328 328 327 327 327 326 325 324 322 319 317 317 317 318 318 319 320 321 322 322 322 322 321 321 320 319 318
338 339 340 341 342 341 341 341 343 343 341 338 337 338 338 336 334 333 332 329 326 323 320 318 318 318 319 319 320 320 320 319 320 322 324 328 331 333 334 334 334 333 332 331 330 329 330 330 330 330 330 330 329 328 327 328 329 329 329 329 328 326 326 327 326 324 323 321 319 318 319 320 320 319 319 319 319 320 320 320 319 318 318 317 316
338 338 339 340 341 342 342 342 342 343 343 340 339 339 339 339 337 336 336 335 334 332 329 325 321 318 318 318 319 319 319 319 319 321 323 327 330 331 332 333 332 331 330 331 331 331 331 332 332 332 332 331 329 326 325 326 329 330 330 329 329 327 326 326 325 324 322 321 320 320 320 321 321 319 319 318 318 318 318 318 317 317 316 316 316
337 338 339 340 341 342 342 342 343 343 343 341 339 339 339 340 339 338 339 339 339 339 338 336 332 327 321 319 318 318 319 319 318 319 322 326 329 331 332 332 332 331 330 330 331 332 332 332 332 332 331 329 328 327 326 328 330 331 329 329 328 327 326 326 324 322 320 321 321 320 319 320 320 319 318 318 317 317 317 317 317 317 316 316 316
337 337 338 340 341 342 342 342 343 342 342 341 340 339 340 342 341 341 341 341 341 341 341 341 340 337 332 325 320 318 318 319 319 318 320 325 329 331 332 332 333 334 332 331 331 333 333 333 333 332 329 328 329 329 329 331 331 330 328 327 327 327 326 325 323 319 318 320 322 321 319 318 319 318 317 318 318 318 318 317 317 316 316 315 315
340 338 338 339 340 341 342 342 343 342 341 340 340 340 341 343 344 343 343 343 343 343 343 342 342 342 340 336 329 322 319 318 319 319 320 324 328 331 332 334 335 334 333 332 333 334 334 334 333 331 329 329 329 328 330 331 331 329 327 326 327 327 326 325 322 319 317 319 323 323 320 318 318 318 318 318 318 318 318 318 317 316 314 314 314
343 340 338 338 338 339 342 343 343 342 341 340 341 342 343 344 345 345 345 345 344 344 344 343 344 344 343 341 338 331 324 320 319 320 320 323 327 331 333 335 336 334 332 332 333 334 333 332 333 332 331 331 329 327 329 330 329 328 327 326 326 326 325 324 322 319 319 320 323 324 321 318 318 318 318 318 318 318 318 318 317 316 314 313 313
347 343 339 337 337 338 341 342 342 341 341 342 342 343 344 345 346 346 346 346 345 345 345 345 345 346 345 343 341 339 333 326 322 321 322 323 325 330 334 336 335 333 330 331 333 334 333 332 332 331 332 331 327 325 326 328 328 328 327 326 326 326 325 323 322 320 320 321 322 323 321 319 318 318 318 318 318 318 318 318 317 316 314 313 313
350 344 339 337 336 337 339 340 340 341 341 343 344 344 346 346 346 346 346 346 346 346 346 346 347 347 346 345 343 342 339 334 327 324 325 326 327 329 333 335 333 330 329 331 334 334 334 333 332 331 331 329 325 322 324 327 328 328 327 326 326 325 324 323 322 322 322 321 321 321 320 319 319 319 318 318 318 318 318 317 316 315 314 313 312
349 344 340 338 336 336 338 338 340 341 342 344 345 345 346 346 346 346 347 347 347 347 347 348 348 347 347 346 344 342 341 338 334 329 327 328 330 330 331 331 331 329 327 329 331 333 334 334 332 331 330 326 322 322 325 328 329 328 327 326 325 325 325 324 324 323 322 320 319 320 320 319 319 319 318 318 318 317 317 316 315 313 309 307 307
350 347 344 341 338 338 337 338 340 341 343 345 346 346 347 347 346 347 348 349 349 349 349 349 348 348 347 346 345 343 341 339 337 333 329 328 330 331 331 330 332 332 329 327 329 332 334 333 332 331 328 322 321 324 327 329 329 328 326 325 325 325 325 325 323 321 320 319 318 319 319 319 318 318 318 317 317 316 316 314 311 306 304 305 307
352 349 346 344 342 340 339 340 340 342 345 347 347 347 348 348 348 349 349 350 350 350 350 350 349 349 347 346 345 343 341 340 338 336 332 328 328 331 331 332 334 335 334 332 332 334 333 333 332 330 325 321 322 326 328 329 329 327 326 324 324 324 324 322 320 319 318 318 319 318 318 317 316 316 316 315 314 314 312 308 304 303 306 310 313
352 349 347 345 344 341 341 340 340 343 347 347 346 347 348 348 349 350 351 351 351 351 351 350 350 349 347 345 344 343 342 340 339 338 334 329 327 329 331 333 334 334 334 334 333 332 331 331 331 328 323 321 323 326 328 328 328 327 325 324 323 322 320 319 319 318 318 318 318 316 313 312 312 312 311 310 309 308 306 304 304 306 309 312 314
354 351 349 348 346 343 342 341 342 345 347 347 346 348 349 349 351 352 353 353 352 352 351 350 350 348 346 345 344 343 342 341 340 338 333 328 328 331 333 334 333 332 332 332 330 329 328 328 328 325 322 321 324 327 328 327 326 324 323 321 320 319 319 319 319 318 318 318 316 313 310 308 308 308 307 307 307 306 305 305 307 308 309 310 310
Wind_Speed
9 8 7 6 5 5 4 4 4 3 4 4 4 4 3 4 4 2 3 3 4 6 8 6 5 5 5 3 2 3 3 3 4 4 3 3 4 4 4 4 4 4 7 8 8 9 9 8 8 8 9 9 9 9 8 8 8 8 8 7 7 7 8 8 8 8 8 8 8 8 9 8 8 7 7 7 6 7 8 8 8 8 7 7 7
10 8 8 6 5 5 4 4 4 5 5 6 5 5 4 5 4 4 5 5 6 7 8 6 5 5 5 3 1 1 2 3 3 2 2 3 3 4 4 3 3 3 6 8 8 8 8 9 9 9 9 9 9 10 10 10 9 9 8 8 8 8 8 8 8 9 9 9 9 9 9 9 9 9 9 9 8 8 8 8 9 9 9 8 8
11 9 8 6 6 6 5 5 5 6 7 7 6 6 6 6 5 5 6 7 7 8 9 7 6 6 4 3 2 2 3 5 4 3 3 5 5 4 3 2 1 2 4 7 8 9 9 9 9 9 9 9 10 10 11 11 10 9 9 9 10 10 9 9 9 9 9 9 9 10 10 10 10 10 10 10 10 10 10 9 10 10 10 10 9
12 11 9 8 7 6 6 6 6 7 8 7 7 7 8 7 7 6 6 7 8 9 9 8 7 6 3 2 3 3 3 5 5 3 4 7 7 4 3 1 0 1 3 6 8 9 8 8 8 9 9 10 10 10 11 11 10 10 10 10 11 11 11 10 10 10 10 10 10 10 10 10 11 11 11 11 11 12 12 11 11 11 11 11 11
13 11 10 8 8 8 8 7 7 9 8 8 8 8 9 8 8 6 6 8 11 10 9 8 8 7 5 4 4 4 4 5 3 2 4 6 6 5 4 3 1 0 2 5 7 8 8 8 8 9 9 10 11 11 12 11 10 11 11 11 11 11 11 11 11 11 11 11 11 11 11 11 11 11 11 11 11 12 13 13 12 12 13 13 12
13 12 11 9 9 9 8 8 8 10 10 9 9 9 9 8 8 7 7 10 13 11 9 7 7 7 6 6 5 5 4 3 2 2 4 4 5 6 5 4 2 1 1 3 5 7 8 8 8 8 9 10 11 11 12 12 11 12 11 12 12 12 12 12 13 13 13 12 13 13 12 12 12 12 12 12 12 12 13 14 14 14 14 14 13
14 13 12 11 11 10 10 9 10 10 10 10 10 10 9 8 8 8 8 11 14 12 9 6 6 4 3 5 6 4 3 2 1 2 3 4 5 6 5 4 3 2 1 1 2 4 6 8 8 8 9 9 10 11 13 13 12 11 11 12 12 13 13 14 14 14 14 13 13 14 13 13 14 13 13 13 14 14 14 13 14 15 15 16 15
14 12 12 12 13 12 11 11 11 11 11 11 11 10 10 9 10 9 9 12 14 13 11 8 7 6 5 6 5 3 2 1 1 1 2 4 5 5 3 2 2 2 2 2 2 2 4 6 7 9 9 10 11 10 11 12 11 11 11 12 12 13 14 14 15 15 15 14 15 15 15 15 15 15 14 14 15 16 15 14 15 15 15 15 15
13 12 12 13 14 14 13 13 13 12 11 11 11 10 10 10 10 10 10 12 14 13 12 10 9 8 6 6 6 3 1 2 3 2 2 4 5 4 3 3 3 1 3 3 4 4 4 6 7 8 9 10 11 10 11 12 11 11 12 12 12 13 14 14 15 15 16 16 16 16 16 17 16 15 15 16 16 16 16 16 16 17 16 16 15
13 13 13 14 15 15 15 14 14 12 12 12 11 11 11 11 11 10 10 12 14 13 13 12 11 8 6 6 6 4 3 4 5 5 3 4 4 3 3 3 4 3 1 1 2 3 4 5 6 8 9 10 10 10 11 11 10 10 11 10 11 12 13 14 14 15 16 16 16 17 17 18 17 15 16 18 17 17 18 18 18 18 18 18 17
13 13 14 15 16 16 16 16 15 13 12 12 12 12 12 11 11 10 10 12 14 14 13 13 11 8 6 6 7 5 6 6 6 6 5 4 4 2 2 2 3 4 3 2 2 2 3 4 5 6 7 8 10 10 10 10 10 10 9 9 9 9 11 12 13 14 15 15 16 17 17 17 16 16 18 19 18 18 19 20 20 19 19 18 17
13 13 14 14 15 16 17 16 15 14 13 12 12 12 12 11 11 10 11 13 14 14 14 14 12 8 7 8 8 8 8 7 6 6 6 5 4 3 2 1 2 2 2 2 1 2 3 4 4 4 5 6 7 9 10 11 10 10 9 9 9 9 10 10 10 12 12 12 14 14 15 15 15 16 18 18 18 19 19 20 21 21 20 18 17
13 14 14 14 14 15 16 16 15 14 13 12 12 12 12 11 10 10 11 12 14 15 16 15 14 11 10 9 9 8 6 6 8 7 7 7 7 6 4 2 1 1 1 1 1 1 2 3 3 3 3 4 5 7 8 8 8 8 8 8 9 9 8 8 8 9 9 9 10 11 11 12 12 13 15 15 16 18 19 20 21 21 20 18 18
14 14 14 14 15 15 16 16 15 14 13 13 13 13 12 11 11 11 11 13 14 15 15 13 12 12 13 11 10 8 5 6 9 8 7 8 9 8 5 3 3 2 2 1 1 1 1 1 2 2 3 4 5 5 6 6 5 5 5 6 6 7 6 6 7 7 7 8 9 9 9 10 9 10 11 11 12 14 16 18 19 20 20 19 19
16 15 15 16 16 16 16 16 15 13 13 14 14 13 12 12 12 12 12 12 13 12 11 9 9 12 14 11 10 10 7 8 10 9 8 8 10 9 7 5 3 1 2 2 2 3 2 2 2 2 3 3 4 5 6 5 5 4 4 4 5 5 5 5 5 5 6 7 7 7 8 9 9 9 10 10 10 11 12 13 14 16 18 18 19
18 17 17 17 17 17 17 16 15 14 15 15 14 13 13 13 13 13 11 12 13 12 11 9 10 12 13 11 10 10 9 10 11 10 8 8 10 10 8 7 4 1 2 2 2 3 5 5 6 5 3 2 3 4 5 5 5 5 4 4 3 4 4 4 5 5 6 6 6 6 6 6 7 7 9 10 11 11 11 11 12 12 13 14 15
19 19 19 18 18 18 18 17 16 16 16 16 14 13 13 13 14 13 11 13 14 13 12 12 12 12 13 12 10 9 10 10 10 11 10 10 13 12 10 8 5 2 1 2 2 5 4 5 7 7 4 2 2 3 4 4 5 4 3 2 2 2 3 4 4 5 5 6 6 6 6 6 6 6 6 7 8 8 9 10 11 12 12 12 12
20 20 20 19 19 19 18 17 17 17 16 15 14 14 14 15 14 13 13 15 14 13 13 13 13 13 13 12 11 10 10 11 12 12 13 14 15 14 11 9 6 4 2 3 4 4 2 3 6 8 6 2 2 3 3 3 2 2 2 2 1 1 1 2 4 5 5 6 6 7 7 7 7 7 7 6 6 6 7 7 8 9 11 11 12
21 20 20 20 20 20 19 18 18 17 16 15 15 15 15 15 13 13 15 16 15 14 14 15 15 14 14 14 13 12 9 11 14 14 16 18 17 15 12 10 8 5 4 3 3 2 1 3 5 7 7 5 3 2 2 2 3 3 3 3 3 2 2 2 3 5 6 7 7 7 7 7 8 8 8 8 8 8 7 7 7 8 9 10 10
22 21 21 20 20 20 20 19 18 17 16 15 15 15 15 14 13 14 16 18 16 14 14 16 16 16 16 14 14 13 9 11 15 14 16 19 18 17 14 11 9 7 6 5 3 1 1 3 4 6 6 6 5 4 4 4 4 3 3 3 3 3 3 3 5 6 7 7 7 8 8 8 8 8 9 9 9 9 9 9 9 9 9 9 9
23 22 22 21 21 21 20 20 19 18 16 15 15 16 15 14 15 15 17 18 16 15 15 15 15 15 16 15 15 14 11 12 14 14 15 18 18 18 17 14 12 9 8 7 5 4 2 3 3 4 5 5 4 3 3 4 3 3 3 4 5 5 5 6 7 8 8 8 8 8 9 9 9 9 9 9 9 10 10 10 10 10 10 10 10
25 24 23 23 22 21 20 19 18 17 17 15 16 16 15 15 16 15 16 17 17 15 15 14 13 12 13 15 16 16 14 14 15 16 17 17 17 19 18 17 14 12 11 9 7 5 4 4 4 5 6 5 4 3 2 2 3 3 4 5 6 7 8 8 8 9 9 8 9 9 9 9 8 9 9 10 10 9 9 9 10 11 11 11 11
27 26 24 24 24 22 20 20 19 18 17 17 16 15 14 15 16 15 15 16 16 15 15 15 14 12 12 14 16 18 18 16 15 16 17 17 17 18 18 17 15 13 11 10 8 7 6 6 6 6 6 6 4 3 2 2 2 3 5 6 8 9 9 9 9 10 10 10 9 10 10 10 9 9 9 9 10 10 9 9 9 10 10 11 11
27 27 26 25 25 23 22 21 20 20 18 17 16 13 13 15 15 16 16 15 16 16 16 16 16 14 13 14 16 18 19 18 16 15 15 15 15 16 17 17 16 14 12 10 10 9 8 7 7 7 7 6 5 4 3 4 4 5 7 8 9 10 10 10 10 10 11 11 11 11 11 12 11 10 9 9 9 10 10 10 10 9 9 10 11
28 27 26 25 25 24 23 23 22 20 19 17 15 13 14 15 16 16 17 17 17 17 17 17 16 15 14 14 16 17 19 18 17 16 15 14 13 13 16 17 15 14 13 12 11 11 11 10 9 9 9 8 8 7 6 5 6 6 8 9 10 11 11 10 11 11 12 13 13 12 12 12 13 13 12 11 10 10 11 11 12 11 11 10 11
28 26 25 25 24 23 23 23 22 20 19 17 16 14 15 16 16 16 17 18 17 17 18 18 17 16 16 16 17 18 18 18 18 18 17 15 13 12 15 16 14 13 13 13 13 13 13 12 11 11 11 11 10 9 8 7 8 8 9 11 12 13 12 12 12 13 14 14 15 14 13 13 13 13 13 13 12 12 12 13 13 14 14 13 13
27 25 25 24 24 23 22 22 22 21 20 18 17 16 16 16 16 16 17 17 16 16 17 18 19 18 17 18 17 18 19 19 19 19 19 18 15 13 14 15 15 15 14 15 15 16 15 14 13 13 13 12 12 11 10 9 9 9 10 13 14 14 14 13 13 14 15 15 15 15 15 14 14 14 14 14 13 13 13 14 14 15 16 16 16
28 26 25 24 24 24 23 22 22 21 21 19 18 18 17 17 17 18 19 18 17 16 17 19 19 19 19 19 19 18 19 21 21 20 19 19 16 15 15 15 15 16 16 17 18 18 16 16 15 14 14 13 13 12 12 12 12 11 12 14 16 16 15 15 15 15 15 15 16 16 16 16 15 15 15 14 14 14 14 15 15 16 17 17 18
29 28 26 25 25 25 24 23 22 22 21 20 20 19 19 18 18 19 19 19 18 17 17 18 19 20 20 21 21 20 20 21 22 21 20 19 18 17 17 16 15 15 16 17 18 18 17 17 17 16 16 15 14 14 14 14 13 13 14 15 17 16 16 16 16 16 16 16 16 17 17 17 17 16 16 16 16 17 17 16 16 16 16 17 17
30 29 28 27 26 26 25 24 24 23 22 21 21 21 21 20 20 19 19 19 19 19 18 19 20 21 21 22 23 23 23 23 23 22 21 20 19 18 18 17 16 16 15 16 17 18 17 17 16 16 16 16 16 16 16 14 13 13 15 16 17 17 16 16 16 17 17 17 17 18 18 18 18 18 17 18 18 19 19 18 17 16 15 15 15
31 31 30 29 28 27 27 26 25 25 24 23 22 22 22 22 22 21 20 20 21 20 20 20 21 22 23 24 24 24 25 25 25 23 22 20 19 19 19 18 18 18 17 18 18 17 16 15 15 16 16 16 16 16 15 14 13 13 15 15 16 16 17 16 16 16 17 17 17 18 18 19 18 18 18 19 19 19 18 18 17 16 14 14 13
34 33 31 30 29 29 28 28 27 27 26 25 24 24 24 24 23 23 21 21 22 22 22 22 22 23 24 25 24 24 25 26 26 25 23 21 20 20 20 20 20 20 20 19 20 18 15 15 15 16 16 16 16 16 15 14 13 14 15 16 16 16 17 16 16 16 16 16 16 17 18 18 18 18 18 18 18 18 18 18 18 17 15 15 14
36 35 34 32 31 30 30 29 29 29 28 27 26 25 25 25 25 24 24 23 23 23 23 23 23 23 24 25 25 24 25 26 27 27 25 24 23 22 22 22 22 21 21 20 20 18 16 15 15 16 16 17 16 15 14 14 14 14 16 17 18 18 17 17 16 16 16 16 16 17 17 18 18 18 17 16 17 17 18 19 19 18 17 17 16
38 37 36 35 33 32 32 31 30 30 30 29 28 27 26 26 26 26 25 25 24 24 25 25 25 24 24 25 26 25 26 27 27 28 27 26 25 23 22 22 22 22 21 20 20 19 18 16 16 16 16 16 16 14 14 14 14 15 17 18 18 18 18 18 18 17 16 16 17 17 17 18 18 18 18 18 18 19 19 19 19 19 19 19 19
40 39 38 37 35 34 33 32 32 31 32 32 31 29 28 27 27 27 26 26 25 25 26 26 26 26 26 26 26 26 27 28 28 28 27 27 26 25 23 22 22 21 20 20 20 20 19 17 16 16 16 16 15 14 13 14 15 16 17 18 19 19 20 20 20 20 19 19 20 20 20 19 19 19 19 19 20 20 20 20 20 20 20 20 20
41 40 39 38 37 36 35 34 33 33 33 33 33 32 30 28 28 28 27 27 26 26 27 27 28 27 27 27 27 26 27 28 29 29 28 28 26 25 24 23 22 21 20 20 20 20 20 19 17 16 15 15 15 14 14 15 15 16 18 19 20 21 21 21 20 20 20 21 22 23 23 22 21 20 20 20 21 21 22 22 21 21 20 20 20
42 41 40 39 39 38 37 36 35 34 34 34 34 33 31 30 29 29 29 28 27 27 28 28 29 29 29 29 28 27 27 28 29 30 30 29 27 26 25 24 24 23 23 23 22 22 22 22 19 16 15 15 15 15 15 16 16 18 19 21 23 24 23 21 20 20 21 22 23 24 24 24 23 22 21 22 22 23 24 24 24 24 24 24 24
42 42 41 41 40 39 39 38 37 36 35 35 35 34 33 31 30 31 31 30 29 29 29 29 29 30 30 30 28 28 28 28 29 29 29 29 28 26 26 25 25 25 26 26 25 24 25 24 22 19 16 16 17 17 16 17 19 21 22 24 25 25 24 22 21 20 21 24 24 24 24 24 23 23 23 24 26 27 27 27 27 27 27 28 28
42 42 42 42 41 40 40 40 39 38 37 36 36 36 34 33 32 32 32 32 31 30 29 30 30 31 32 31 29 29 30 29 29 29 28 28 28 28 27 27 27 27 27 27 26 26 26 24 23 21 19 19 19 19 18 18 20 23 25 26 26 26 24 22 22 21 22 24 24 23 22 22 22 23 25 26 28 28 29 29 29 29 29 30 30
43 42 42 42 41 41 41 41 41 39 39 38 38 37 36 35 34 33 33 33 32 31 30 30 30 31 32 31 30 30 30 30 30 29 28 28 28 28 28 28 26 25 26 26 26 26 25 24 22 22 22 21 20 20 19 20 21 24 26 27 28 28 25 22 22 23 24 25 24 22 22 22 23 24 25 26 26 27 27 28 28 28 28 28 28
43 42 42 42 42 42 42 42 42 41 41 40 40 39 38 37 35 34 34 33 33 32 31 31 30 31 31 31 31 31 31 31 30 30 29 28 28 27 27 27 25 24 25 26 26 26 24 23 22 22 22 21 20 20 22 22 23 25 27 27 27 26 23 22 23 25 26 26 24 23 24 25 26 25 24 24 24 23 24 24 25 25 25 24 25
43 42 42 42 43 43 43 43 43 43 43 42 41 40 40 39 37 36 35 34 33 32 32 31 31 31 30 30 31 32 31 31 30 30 30 30 29 27 26 25 25 25 26 27 27 25 23 23 22 21 22 22 20 21 25 25 25 26 27 27 26 24 22 23 25 25 25 25 25 25 26 27 28 26 23 22 22 22 23 23 23 23 24 24 25
43 43 43 43 43 43 43 43 44 44 44 43 42 41 41 40 38 37 36 35 33 33 32 32 32 32 30 29 30 31 31 31 30 29 29 30 30 28 26 25 25 25 26 27 27 26 25 25 24 22 22 23 22 23 26 26 26 26 27 27 26 24 23 24 27 27 25 25 26 28 28 28 28 26 23 22 24 24 25 24 23 23 24 24 24
44 43 43 44 43 43 43 44 44 44 44 43 43 42 41 40 38 37 36 35 34 33 33 32 32 32 31 29 29 30 30 30 30 29 29 30 30 29 27 25 25 26 26 27 27 28 27 26 26 24 24 24 22 22 24 26 27 27 27 26 25 25 24 25 27 27 26 26 28 30 31 29 27 26 26 26 26 27 27 26 26 25 24 23 23
45 44 44 43 43 44 44 45 44 44 44 43 43 42 41 40 38 36 36 35 34 34 33 31 31 33 32 29 28 29 28 28 28 28 28 29 29 29 27 25 26 27 27 27 28 28 28 28 27 25 24 24 23 21 22 25 28 28 27 26 25 25 25 25 26 27 26 27 28 31 32 30 26 28 29 28 27 28 28 27 27 27 26 26 26
46 45 45 44 43 44 44 44 43 43 43 43 43 42 41 39 36 35 35 35 34 34 32 31 29 30 31 29 27 27 26 26 27 27 26 27 29 29 28 27 27 28 28 28 28 29 31 30 29 26 24 23 23 22 22 25 27 27 26 26 25 25 25 25 26 27 27 27 28 30 32 29 26 28 31 29 28 28 28 28 29 30 31 32 32
46 45 45 44 43 44 44 43 43 43 43 43 43 42 41 38 35 33 33 34 34 33 32 31 28 27 28 29 28 26 25 25 26 25 24 25 26 28 29 28 28 29 30 30 29 31 33 31 28 26 23 21 21 22 23 24 25 25 25 25 24 25 25 26 27 28 28 27 27 29 31 29 26 27 29 29 29 30 31 31 33 34 34 32 30
47 47 46 45 44 44 43 43 43 43 43 43 42 41 40 36 33 32 32 33 34 34 32 31 29 26 26 27 26 26 25 24 25 25 24 23 24 27 28 28 28 31 32 31 31 33 33 28 24 25 23 21 21 22 23 24 24 24 24 24 24 25 26 28 29 28 27 25 24 26 28 28 26 27 30 30 31 34 35 35 34 32 28 25 22
48 48 48 46 45 44 43 42 42 42 42 42 41 40 37 33 31 31 31 32 33 33 31 29 28 28 27 26 25 25 24 24 24 25 25 24 23 24 26 27 30 32 33 34 33 29 26 24 23 24 23 22 22 22 22 23 24 24 25 25 25 26 27 28 28 25 22 21 21 24 27 29 28 29 31 32 33 35 36 34 30 25 21 18 18
49 48 47 46 45 43 43 42 41 41 41 40 38 37 34 31 30 30 30 31 32 31 30 28 27 27 27 26 25 26 25 25 25 25 24 22 20 22 25 25 25 25 27 31 30 23 20 22 23 24 24 23 22 22 23 24 25 25 25 26 26 26 25 24 22 21 21 20 21 24 27 29 29 29 29 30 31 33 31 27 23 21 18 18 18
48 47 46 46 45 44 43 42 40 40 40 38 36 35 31 29 29 30 30 30 29 28 27 27 26 24 23 24 27 28 26 25 25 24 22 19 18 20 21 18 15 16 17 21 21 18 18 20 22 23 24 23 22 22 23 24 25 25 26 26 25 23 21 19 19 21 23 23 24 26 27 26 26 26 25 25 27 29 27 22 21 21 20 21 21
Wind_Direction
199 198 196 191 198 206 203 210 230 249 256 258 264 275 284 278 274 288 301 281 242 207 200 204 181 160 166 159 128 144 157 164 161 152 142 109 94 104 115 129 165 191 198 195 198 204 203 202 201 199 200 201 200 202 205 207 211 209 207 207 211 217 218 220 218 218 217 218 222 222 224 225 228 230 229 229 224 223 225 227 229 229 229 232 245
202 208 210 200 204 215 223 232 245 264 274 276 277 280 281 286 280 287 289 263 243 213 204 211 189 174 184 187 142 162 234 203 174 183 189 162 129 119 116 114 142 192 206 197 196 202 206 209 209 206 204 203 202 201 206 212 212 215 214 210 216 222 223 228 226 225 223 224 229 231 231 232 234 236 237 239 236 233 231 231 237 241 245 244 246
203 211 218 216 220 227 242 253 263 271 277 277 274 274 272 279 274 272 272 246 224 200 200 212 198 188 192 212 236 260 256 217 200 241 224 184 171 151 134 114 117 186 212 205 200 199 203 212 214 215 212 210 208 204 209 215 212 212 217 215 218 222 224 229 230 230 230 230 234 237 239 239 241 242 243 245 245 244 239 235 239 244 251 253 252
209 214 218 223 232 240 254 263 275 277 278 274 265 266 265 267 264 261 263 235 206 194 201 210 203 197 193 231 265 266 237 201 198 234 205 180 179 181 180 185 135 200 217 209 208 205 205 210 214 220 220 219 217 213 214 219 217 213 215 217 220 223 224 229 232 234 235 235 237 240 243 244 246 247 248 250 251 253 251 246 243 244 249 253 256
221 224 222 229 237 245 259 268 279 279 273 265 258 262 261 259 258 256 250 221 202 200 207 207 209 217 221 236 249 237 214 195 194 203 191 182 180 193 208 217 211 229 230 216 211 210 212 212 214 220 222 222 221 223 223 223 224 222 220 223 226 227 228 232 233 235 237 238 239 241 244 245 245 246 250 253 253 255 258 259 256 253 252 252 256
230 233 230 236 242 247 261 268 274 273 266 261 259 261 256 251 251 250 240 216 207 210 214 209 209 218 227 227 218 214 210 201 191 168 185 190 181 194 214 225 226 250 248 230 212 208 216 217 216 220 225 227 225 229 232 227 227 228 227 229 232 230 231 236 235 235 238 240 241 241 244 246 248 247 248 252 252 251 253 257 258 257 258 257 257
232 236 236 242 249 253 262 265 266 265 264 261 260 261 256 253 251 251 242 219 215 220 219 204 191 190 200 201 198 202 197 195 173 135 163 184 178 187 203 213 222 236 228 235 219 205 217 222 222 225 228 232 230 232 238 236 232 233 233 233 237 235 233 238 241 241 243 245 247 247 248 250 252 251 250 252 254 254 252 254 255 255 257 258 259
232 237 241 248 254 258 261 262 259 259 263 261 261 263 256 254 252 253 248 225 220 224 221 205 184 175 174 185 190 188 178 218 224 157 170 176 162 153 147 155 179 201 211 224 250 233 225 226 227 231 233 235 234 232 242 246 239 240 240 236 239 242 240 242 245 248 249 250 252 253 253 252 252 252 253 256 258 261 261 260 259 257 255 257 258
235 241 246 252 256 259 259 257 254 256 261 262 262 261 256 255 253 253 248 229 221 224 225 218 203 190 190 197 197 190 209 256 241 227 211 169 147 128 109 77 76 147 221 235 253 241 229 230 229 234 236 239 241 236 239 245 243 242 243 238 238 242 246 248 248 251 252 252 254 256 257 256 255 256 257 257 256 258 260 259 258 258 257 257 257
239 246 250 252 254 254 254 253 251 254 259 259 257 256 257 260 259 253 244 230 221 223 227 226 221 212 211 211 201 207 245 254 241 226 211 165 151 145 124 85 59 50 21 287 268 232 222 232 235 238 238 239 244 242 240 245 245 244 247 247 245 245 248 251 251 254 255 254 255 257 259 261 262 261 259 257 257 257 259 260 260 259 259 258 258
241 246 248 250 250 249 249 250 251 254 256 254 252 254 258 264 266 252 231 225 225 226 226 223 221 214 213 211 201 218 242 246 234 213 194 170 171 183 148 107 71 56 37 2 316 245 222 223 228 234 236 235 239 242 242 244 246 248 254 259 260 258 257 257 257 257 256 255 256 259 262 264 267 266 261 259 260 260 260 261 261 260 260 261 262
238 239 240 245 246 246 248 250 253 254 253 251 251 255 261 266 263 243 223 223 227 226 222 222 223 219 216 211 207 226 239 233 225 207 194 193 200 222 226 157 72 67 27 346 308 274 245 222 219 218 219 227 235 240 242 243 247 251 254 257 260 262 263 264 263 259 257 257 260 263 268 270 271 270 265 261 260 261 262 262 261 261 261 262 264
233 233 235 242 245 246 248 250 254 254 252 250 252 256 260 258 246 232 222 221 224 226 229 232 234 228 217 212 213 224 228 214 210 200 194 205 214 228 240 264 326 1 358 326 250 277 268 235 223 221 228 232 231 236 241 243 243 246 249 253 258 259 260 262 263 263 263 266 267 270 274 275 274 271 267 265 264 265 266 266 266 266 266 264 262
232 234 238 244 248 251 252 254 255 254 250 248 252 257 257 248 236 228 225 226 228 230 232 230 226 216 210 213 212 205 200 196 196 189 192 209 216 225 238 263 289 328 12 9 26 5 318 281 257 259 271 255 241 239 243 245 241 238 242 248 257 261 265 269 270 271 271 272 272 273 275 276 276 273 271 272 271 268 268 269 271 271 270 269 265
232 236 242 246 251 256 257 258 257 252 247 247 254 258 252 243 236 234 236 237 228 216 210 206 203 203 204 212 206 196 197 193 187 188 200 214 219 225 234 247 256 268 25 5 17 36 55 56 28 354 329 290 258 246 238 238 238 235 238 246 258 266 273 282 288 288 285 285 284 281 281 280 279 278 276 276 274 271 270 272 273 270 269 269 268
233 236 242 247 253 257 256 257 254 249 247 249 255 257 251 244 242 243 242 230 211 196 192 192 195 199 203 210 205 199 201 193 188 196 206 211 215 223 232 238 234 184 39 0 36 86 94 75 50 28 0 319 278 256 239 232 236 244 256 270 282 286 292 299 303 303 302 305 307 303 299 296 292 286 281 279 278 276 274 275 275 272 272 274 273
232 236 241 247 253 255 253 253 250 247 247 249 254 253 249 247 249 249 233 213 200 195 196 193 192 199 208 210 204 203 202 194 193 201 204 202 206 216 227 229 225 191 101 62 110 122 113 65 40 29 15 309 270 265 252 240 240 246 250 270 298 312 324 327 322 318 316 313 312 310 306 301 300 297 292 289 287 287 283 280 278 277 275 274 274
229 235 241 247 251 251 249 249 247 246 246 248 250 246 244 247 248 239 219 206 199 199 202 199 196 200 213 217 210 209 208 199 194 191 192 197 203 213 221 217 214 208 154 121 126 130 105 37 31 32 36 31 245 242 244 240 223 186 159 144 126 91 26 354 335 329 321 317 313 308 304 299 294 291 290 289 286 286 285 284 283 283 278 274 273
230 234 242 247 249 248 246 245 244 244 245 246 244 241 243 244 236 219 209 205 201 202 206 206 203 203 213 222 218 219 221 209 200 189 186 195 205 211 212 209 208 206 187 162 152 144 44 16 22 32 47 59 74 123 163 152 141 134 118 96 88 83 64 22 344 330 321 315 310 307 304 299 293 287 283 280 279 277 276 278 281 284 283 280 279
232 234 240 246 247 246 244 242 240 241 243 243 242 241 240 232 217 206 206 207 206 208 210 210 211 212 215 220 222 224 226 211 206 201 193 195 204 208 205 205 205 203 202 201 198 212 315 350 5 21 39 52 63 83 91 94 100 94 66 46 42 32 16 1 345 337 326 313 306 305 304 303 300 293 286 279 276 277 277 276 276 277 280 282 284
234 234 237 243 246 245 243 239 236 238 241 239 238 237 233 223 214 208 207 209 214 217 216 216 219 220 220 222 224 223 215 203 205 209 204 201 205 206 203 203 203 203 209 211 213 225 265 310 332 355 10 23 43 69 78 72 61 45 26 13 4 354 347 341 336 334 329 317 307 305 305 307 307 303 297 289 281 277 276 277 276 274 274 275 279
235 233 235 241 244 243 239 236 235 237 239 236 234 231 226 221 217 213 210 212 217 220 217 219 224 224 223 223 223 221 215 208 205 205 207 210 212 210 209 210 209 208 210 212 215 222 250 285 303 325 340 352 9 30 43 39 28 11 358 354 350 344 339 334 330 328 328 323 314 309 308 307 308 307 304 299 293 286 281 279 279 277 274 271 271
233 232 234 239 241 239 235 234 234 234 235 233 231 228 223 221 218 213 211 213 220 223 220 219 223 228 227 224 222 223 224 223 216 210 210 213 214 214 214 216 221 224 218 212 211 218 242 272 293 308 317 325 335 342 334 334 337 332 332 338 339 337 334 330 328 328 329 326 318 311 308 306 304 303 301 298 297 295 291 286 283 281 278 274 271
228 230 232 236 238 235 231 231 231 230 231 231 229 226 222 221 220 216 214 214 219 224 225 224 226 228 229 226 222 222 225 228 227 226 223 220 219 217 214 215 223 227 221 215 216 224 239 260 281 292 295 296 298 295 291 297 306 311 316 324 328 328 328 327 325 326 328 327 321 312 307 305 303 300 295 290 290 292 295 295 292 289 284 280 277
222 226 229 232 234 233 228 228 229 228 228 229 228 226 224 222 221 221 220 219 220 224 228 231 232 231 229 227 226 222 219 221 225 229 230 229 226 220 213 213 219 220 220 224 230 236 245 256 269 275 276 275 275 276 277 284 291 296 304 312 318 320 322 324 323 324 325 324 321 314 307 303 302 300 295 289 285 285 288 292 294 294 291 287 283
223 226 229 230 232 231 228 227 227 227 228 229 228 227 227 224 221 223 225 223 222 225 229 232 234 234 230 228 230 226 219 217 220 224 228 230 229 220 211 208 213 220 226 233 238 243 250 260 265 264 264 263 261 263 269 276 279 284 293 302 308 313 315 317 317 319 320 319 317 315 310 305 302 300 297 293 289 287 287 288 289 290 290 289 286
228 231 232 233 232 230 229 228 226 227 228 229 228 228 227 224 221 225 228 225 223 226 229 230 232 233 231 229 231 227 222 220 221 222 225 229 230 229 224 218 219 227 235 240 243 247 253 258 258 256 256 256 257 260 264 266 268 273 283 294 302 306 306 305 305 307 309 311 312 311 309 304 300 298 295 293 291 290 290 288 287 287 286 286 285
230 233 235 236 236 233 230 229 226 225 227 229 230 231 229 225 222 226 229 229 227 229 230 229 230 232 232 231 232 230 226 224 225 225 226 229 231 234 238 238 236 237 240 241 242 244 247 248 249 250 251 253 258 262 264 265 266 271 278 289 297 298 298 298 297 297 299 303 306 307 307 303 299 296 295 293 293 293 292 291 288 285 282 281 281
230 233 236 239 239 237 233 231 228 225 225 229 231 233 233 230 227 228 230 232 232 233 234 231 229 229 232 233 233 232 230 228 228 229 228 231 233 235 240 245 247 247 245 245 244 244 246 247 247 247 247 250 256 260 262 264 268 275 281 287 291 293 294 295 294 294 295 297 300 302 303 303 301 298 296 296 297 297 297 295 293 288 283 280 278
231 233 237 239 240 239 236 233 231 227 225 227 230 232 234 234 233 231 231 233 236 236 237 236 231 228 230 233 233 233 232 232 232 232 232 233 237 240 243 246 250 251 252 256 256 252 250 250 248 247 246 246 249 254 257 261 270 278 282 285 288 290 290 289 288 288 290 293 294 295 297 299 299 299 298 297 297 297 298 297 296 291 286 282 278
232 233 236 238 239 239 237 234 232 230 228 228 229 231 233 235 236 235 232 232 235 237 237 238 235 231 229 231 233 234 235 236 236 236 237 238 239 243 246 248 251 254 257 261 262 257 252 252 249 247 247 246 249 253 257 263 270 273 276 281 285 288 288 287 286 286 288 289 288 287 287 289 292 294 294 294 293 293 293 294 294 291 287 285 280
233 233 235 237 238 238 236 235 233 231 229 229 230 231 233 235 236 237 235 233 235 236 236 238 237 234 232 231 234 235 237 240 240 240 242 242 243 244 247 250 253 257 260 262 264 260 253 252 249 245 246 249 251 256 261 265 265 265 271 278 283 287 289 290 291 291 292 293 290 286 281 280 283 285 288 289 289 289 289 289 289 287 286 283 279
234 234 235 237 237 237 236 235 234 231 230 231 232 233 234 235 235 237 237 237 237 237 237 237 237 237 236 234 235 236 238 241 242 243 244 247 249 248 249 251 254 258 262 264 265 260 253 250 247 244 246 249 252 256 261 265 267 270 276 282 285 287 288 290 291 292 294 295 295 293 288 283 281 282 284 286 289 291 290 288 285 283 282 280 278
235 235 236 237 237 237 236 235 235 233 231 231 233 234 236 235 234 235 237 237 238 239 239 238 237 237 239 239 238 237 238 241 243 244 245 247 251 252 252 255 257 259 263 266 265 262 258 253 246 242 243 247 252 255 261 268 272 276 281 287 291 293 294 295 296 296 299 300 298 295 293 290 287 285 284 285 288 291 290 288 285 281 278 275 274
235 236 237 237 237 237 237 237 237 235 233 232 233 235 237 237 235 235 237 238 239 240 241 240 239 238 240 241 242 240 239 240 242 244 244 245 248 252 257 260 260 261 264 264 264 265 263 255 245 241 240 244 251 257 263 270 277 283 290 296 299 299 299 299 299 301 305 306 304 301 298 295 293 291 289 288 290 290 290 289 285 281 276 272 271
234 235 236 238 238 238 238 239 239 238 235 232 233 236 238 238 237 236 238 239 241 242 244 245 244 242 242 243 244 243 243 242 242 242 242 243 246 252 257 261 262 263 266 266 266 266 263 255 245 240 241 246 251 259 267 273 282 293 300 304 306 305 304 299 296 298 303 305 305 303 302 300 299 296 293 290 290 291 291 291 288 284 280 277 275
234 235 236 238 239 239 240 240 240 241 238 235 235 237 239 240 239 238 239 241 243 245 247 249 248 246 246 246 247 247 247 247 245 242 242 243 247 251 255 259 261 264 267 269 269 266 262 258 251 243 245 252 254 261 272 282 292 299 303 307 309 309 308 301 293 293 298 301 302 301 300 298 298 297 293 289 286 285 286 287 287 286 285 283 282
234 235 237 238 239 240 241 242 242 243 242 239 238 239 240 242 242 240 240 241 244 247 249 251 251 251 250 250 250 251 251 251 250 248 246 246 248 251 255 259 262 264 267 268 268 265 260 260 260 256 258 264 266 269 278 290 298 304 307 309 309 309 307 300 293 292 297 301 303 301 298 296 295 294 291 287 283 282 284 285 285 285 284 283 282
234 235 236 238 240 242 243 244 244 245 245 243 241 240 241 242 244 244 243 243 245 247 250 253 254 254 254 253 253 253 253 253 253 253 252 251 251 253 257 261 264 265 265 265 265 262 258 260 264 265 269 276 276 276 284 295 300 306 311 311 308 307 304 297 294 295 298 301 303 302 299 299 298 295 291 288 286 286 286 286 285 285 283 282 281
234 235 237 238 240 243 244 246 246 247 247 246 244 242 242 242 244 245 246 246 247 249 251 255 256 257 257 255 254 254 254 254 254 254 255 254 253 255 258 260 263 264 263 262 261 259 257 261 266 269 274 278 278 280 290 301 305 308 312 310 306 305 303 296 293 296 299 302 303 302 300 301 301 297 293 290 288 288 288 286 285 284 282 281 280
234 235 237 239 241 243 245 246 247 248 249 249 248 246 245 244 245 246 247 249 250 252 254 257 259 261 261 260 258 256 256 256 256 256 256 255 254 254 256 259 261 263 263 261 258 256 257 262 267 271 274 275 276 283 291 298 304 308 310 308 304 303 300 294 292 297 300 301 303 301 299 301 303 302 296 291 288 287 287 286 286 285 283 281 279
235 236 237 238 240 242 245 247 248 249 249 250 250 249 248 248 248 249 250 252 254 256 258 260 263 265 266 266 263 260 257 257 257 257 256 256 255 255 257 260 261 264 265 260 254 253 256 261 265 267 269 270 274 282 288 294 301 306 308 306 302 299 295 292 294 297 299 300 303 301 298 301 304 304 299 290 287 288 288 288 288 288 285 281 278
236 236 237 239 240 242 244 246 248 249 250 251 252 251 251 250 250 251 252 255 258 260 262 263 266 268 269 270 270 266 261 259 258 258 257 256 256 256 257 259 263 265 262 255 250 251 254 257 260 261 264 267 271 279 287 294 299 304 305 303 298 294 293 294 297 298 299 301 303 301 300 302 303 301 295 289 289 291 290 290 292 292 287 283 280
235 236 237 239 240 242 244 246 248 250 252 253 253 254 253 252 252 254 255 257 259 262 264 266 269 271 270 272 274 272 268 264 261 261 260 258 257 257 256 256 262 263 255 248 248 252 253 252 254 257 260 264 269 278 287 295 299 302 303 301 295 291 291 295 297 299 300 302 302 300 300 300 299 295 292 293 295 295 294 295 297 295 290 288 287
234 236 237 239 241 242 244 246 248 251 253 254 254 255 254 254 255 256 258 260 261 263 265 267 270 272 272 272 274 274 273 270 265 263 263 261 259 257 255 255 258 259 253 247 248 254 256 254 252 252 255 261 267 275 285 294 300 302 301 299 293 290 291 294 297 298 300 301 300 298 297 296 294 292 293 298 299 297 296 297 298 297 295 295 296
234 235 237 238 240 242 244 246 249 252 254 255 256 256 256 256 258 259 260 261 262 263 265 267 269 273 274 273 273 275 275 273 270 266 265 266 263 259 257 256 257 258 253 248 250 254 256 255 252 251 253 259 267 276 285 294 300 300 298 295 291 290 292 294 296 297 298 299 297 295 294 294 294 293 296 300 299 296 297 299 301 302 301 300 299
235 236 237 238 240 241 243 246 248 251 254 254 255 256 257 258 259 261 261 261 262 262 263 264 264 267 272 273 272 273 274 274 272 268 267 268 265 260 258 257 258 257 253 249 249 252 255 254 251 251 256 263 271 280 289 295 298 298 295 291 290 291 292 293 293 295 296 296 294 293 294 297 299 297 297 299 299 299 301 304 305 304 302 300 297
235 236 237 238 239 241 243 245 247 250 252 253 254 256 257 259 260 260 260 260 261 261 261 262 262 261 264 270 272 271 271 273 273 270 268 269 265 260 260 259 259 258 256 251 247 250 258 260 251 250 260 270 276 283 291 295 296 294 291 288 289 291 291 292 294 295 296 297 296 296 298 302 303 301 299 301 302 303 304 306 305 304 302 299 293
235 236 236 237 239 240 242 244 246 249 250 252 254 256 257 259 259 259 260 259 258 259 259 260 260 258 259 265 271 271 269 270 271 270 271 272 266 261 261 262 263 264 260 252 245 247 258 262 253 251 262 272 279 287 293 294 293 292 289 289 290 291 292 294 295 296 298 300 300 301 303 304 305 304 303 304 305 304 305 306 305 303 298 290 281
234 235 236 237 239 241 242 244 246 248 250 252 255 257 258 260 260 260 260 258 257 257 257 257 258 261 262 264 268 269 269 269 269 270 272 271 266 264 265 264 269 273 266 253 247 246 252 253 250 253 263 274 282 289 293 292 292 290 289 291 293 294 294 294 295 299 303 305 308 309 307 306 306 305 305 305 304 303 303 304 302 299 293 284 278
235 235 236 237 239 240 242 244 246 247 249 253 255 256 258 259 260 260 259 256 255 255 255 254 256 260 262 262 264 268 271 271 270 270 272 270 267 269 270 271 283 291 276 254 243 241 247 251 252 257 265 276 284 289 291 291 290 289 290 293 295 294 293 294 298 304 306 309 314 314 310 307 306 305 306 307 306 303 303 303 302 299 296 293 291